Location: Vancouver
(49.2500°N, 123.1330°W)
Time: 19:47:57
(UTC-07:00)

Daily predictions for brighter satellites

Satellite Brightness Start Highest point End
(mag) Time Altitude Azimuth Time Altitude Azimuth Time Altitude Azimuth
Meteor 1-23 Rocket 4.2 21:37:09 10° S 21:42:41 70° E 21:48:19 10° NNE
NOSS 2-2 (C) 4.4 21:38:39 10° WSW 21:42:45 60° NW 21:47:46 10° NE
Cosmos 1624 Rocket 4.2 21:39:18 10° NNW 21:44:37 83° WSW 21:49:56 10° SSE
MetOp-B 4.3 21:39:59 10° SSE 21:45:16 67° ENE 21:50:37 10° N
Cosmos 2058 Rocket 3.6 21:44:33 10° N 21:48:50 46° ENE 21:53:07 10° SSE
USA 234 4.4 21:44:19 10° ENE 21:50:30 47° N 21:56:40 10° WNW
Cosmos 2278 3.8 21:48:18 10° NNW 21:54:02 85° ENE 21:59:45 10° SSE
Meteor 1-4 Rocket 3.8 21:51:37 10° N 21:54:43 26° ENE 21:57:45 10° SE
H-2A R/B 2.6 21:50:19 10° SE 21:54:59 42° ENE 21:59:46 10° N
Cosmos 2082 Rocket 3.1 21:52:08 10° SSE 21:56:57 29° ESE 22:01:45 10° NE
YAOGAN 6 3.5 21:54:09 10° S 21:57:31 46° W 22:00:56 10° NNW
COSMOS 2406 4.0 21:52:13 10° SW 21:57:51 59° WNW 22:03:29 10° NNE
YAOGAN 11 4.1 21:54:07 10° SSE 21:58:23 70° ENE 22:02:45 10° N
Meteor 1-15 Rocket 4.5 21:54:47 10° NNW 22:00:23 72° W 22:05:54 10° S
Cosmos 2056 Rocket 3.9 21:59:00 10° NNW 22:04:07 62° WSW 22:09:10 10° S
Cosmos 1680 Rocket 4.5 21:59:07 10° SW 22:04:13 52° WNW 22:09:20 10° NNE
Intercosmos 24 4.4 22:00:31 10° NNW 22:04:24 55° W 22:07:52 10° S
ATLAS CENTAUR R/B 3.6 22:03:46 10° N 22:06:06 15° NNE 22:08:23 10° ENE
Tiangong 2 2.3 22:03:29 10° SW 22:06:10 25° S 22:08:33 12° ESE
Cosmos 2181 Rocket 4.1 22:03:23 10° S 22:09:37 61° E 22:15:47 10° NNE
Cosmos 1697 Rocket 2.9 22:06:14 10° NNW 22:11:51 64° ENE 22:17:01 12° SE
H-2A R/B 3.3 22:09:07 10° SE 22:13:00 30° ENE 22:16:57 10° N
Cosmos 2369 3.9 22:08:33 10° NNW 22:14:17 72° WSW 22:19:57 10° SSE
Cosmos 1656 3.6 22:09:04 10° NNW 22:14:33 87° ENE 22:19:42 12° SSE
Landsat 7 4.3 22:14:33 12° SE 22:18:47 49° ENE 22:23:23 10° N
SL-16 R/B 3.9 22:15:04 10° N 22:19:36 24° NE 22:24:06 10° E
MOS 1-B Rocket 4.4 22:14:35 10° S 22:20:28 69° WSW 22:27:15 10° NNW
Cosmos 1420 Rocket 4.3 22:15:46 10° NNW 22:20:59 58° ENE 22:25:28 14° SE
Cosmos 1626 Rocket 4.4 22:19:42 13° SSE 22:22:59 32° E 22:26:50 10° NNE
COSMOS 2487 2.5 22:19:47 10° S 22:23:16 57° ESE 22:26:49 10° NNE
Cosmos 1437 Rocket 4.0 22:19:49 10° NNW 22:23:24 38° W 22:27:00 10° SSW
Cosmos 1271 Rocket 4.1 22:21:50 10° N 22:25:09 26° ENE 22:27:48 14° ESE
Cosmos 1833 Rocket 2.9 22:26:16 10° S 22:31:38 48° ESE 22:37:02 10° NE
Cosmos 2228 3.1 22:28:04 10° NNW 22:32:24 77° W 22:36:23 12° S
Iridium 43 3.4 22:30:28 10° N 22:32:41 76° W 22:34:11 18° S
Terra 2.3 22:30:03 15° SE 22:33:49 49° ENE 22:38:24 10° N
Cosmos 921 Rocket 4.0 22:29:48 10° NNW 22:34:05 44° WSW 22:38:16 10° S
NOSS 8 (F) 4.4 22:32:16 10° SSW 22:35:43 70° SE 22:39:29 10° NE
Cosmos 1452 Rocket 3.6 22:30:44 10° NNW 22:36:02 77° WSW 22:40:32 14° SSE
Cosmos 1515 4.3 22:36:39 10° SSW 22:40:23 56° WNW 22:44:10 10° N
SPOT 5 3.3 22:37:21 10° S 22:41:33 50° W 22:45:52 10° NNW
SL-8 Rocket 4.1 22:36:03 10° N 22:42:20 83° W 22:48:18 12° S
Cosmos 1544 4.2 22:41:58 10° N 22:45:15 31° ENE 22:47:12 19° ESE
SPOT 1/Viking Rocket 3.8 22:41:51 12° S 22:46:36 68° WSW 22:51:46 10° NNW
Cosmos 1953 3.8 22:45:08 10° NNE 22:48:31 25° ENE 22:50:49 16° ESE
Cosmos 2366 rocket 4.0 22:42:34 10° N 22:48:47 85° E 22:53:57 15° S
ISS -3.5 22:46:44 10° W 22:50:02 71° NNW 22:53:20 10° ENE
Cosmos 1066 Rocket 4.2 22:44:41 10° S 22:50:12 80° E 22:55:55 10° NNE
Cosmos 1892 Rocket 4.5 22:48:31 10° SSW 22:52:49 49° WNW 22:57:07 10° N
Spot 4 4.5 22:52:57 18° SE 22:56:10 44° ENE 23:00:46 10° N
Cosmos 1602 Rocket 3.5 22:54:55 17° S 22:58:13 69° E 23:02:32 10° NNE
SeaSat 1 4.4 22:54:50 10° E 22:58:34 22° NE 23:02:18 10° N
Cosmos 2360 Rocket 4.2 22:54:25 10° N 22:58:41 21° NE 23:02:56 10° E
NOSS 3-1 (C) 4.4 22:51:38 10° NW 22:58:49 60° NE 23:06:21 12° ESE
NOSS 8 (H) 4.4 22:55:36 10° SW 22:58:57 79° SE 23:02:46 10° NE
Cosmos 1766 3.2 22:55:42 10° N 22:59:37 76° E 23:01:57 23° SSE
Cosmos 1980 Rocket 2.2 22:54:57 10° NNW 23:00:39 87° ENE 23:04:37 20° SSE
deb Chang Zheng 4 3.8 23:02:24 10° NNE 23:06:37 49° E 23:09:04 23° SSE
Cosmos 468 4.5 23:02:06 10° SSW 23:07:20 73° ESE 23:12:39 10° NNE
ARGOS 4.4 23:03:16 10° SSW 23:08:11 35° W 23:13:09 10° NNW
Lacrosse 5 rocket 2.3 23:07:00 10° NW 23:11:33 53° NNE 23:15:49 12° ESE
Cosmos 2322 Rocket 2.9 23:06:20 10° NNW 23:11:50 46° NE 23:16:01 17° ESE
Cosmos 1470 4.3 23:11:38 10° NNE 23:15:01 26° ENE 23:16:51 19° ESE
Meteor 1-21 4.3 23:13:49 18° S 23:18:03 70° E 23:23:48 10° NNE
SME Rocket 4.1 23:20:39 20° SE 23:23:25 38° ENE 23:27:05 10° N
CARTOSAT-1 4.0 23:21:24 21° S 23:24:05 57° W 23:28:22 10° NNW
USA 229 DEB 3.9 23:18:40 10° NW 23:25:43 66° SW 23:30:32 22° SSE
USA 229 3.9 23:18:47 10° NW 23:25:50 66° SW 23:30:37 23° SSE
Cosmos 158 Rocket 4.0 23:22:06 17° S 23:26:11 71° ESE 23:31:35 10° NNE
DELTA 2 DEB (DPAF) 4.2 23:23:56 27° SSE 23:26:22 71° ENE 23:30:51 10° N
Timation 2 Rocket 3.9 23:22:45 10° SSW 23:29:06 80° ESE 23:35:14 10° NNE
Cosmos 1805 3.2 23:25:45 10° N 23:29:41 90° NE 23:31:26 32° S
Meteor 1-4 Rocket 4.5 23:26:51 10° NW 23:29:46 23° W 23:32:08 13° SW
Cosmos 1758 3.3 23:27:03 10° N 23:31:04 74° E 23:32:47 32° SSE
ATLAS 2AS CENTAUR R/B 4.5 23:23:48 10° NW 23:31:13 36° NNE 23:38:22 10° E
NOSS 3-1 (A) 4.2 23:25:03 10° NW 23:32:21 68° NE 23:39:16 15° SE
CZ-2C R/B 4.2 23:28:18 10° NE 23:32:35 22° E 23:34:42 18° ESE
USA 234 4.0 23:26:36 10° E 23:32:54 52° NNE 23:39:12 10° WNW
CZ-4B R/B 3.6 23:27:52 10° NNE 23:32:55 63° ESE 23:35:55 25° S
Cosmos 1934 Rocket 4.4 23:27:43 10° N 23:33:57 52° ENE 23:37:46 23° SE
H-2A R/B 3.4 23:30:29 11° SSW 23:34:33 30° W 23:39:00 10° NNW
CZ-4 R/B 3.9 23:30:25 10° NNE 23:35:28 78° ESE 23:38:39 23° S
IGS 5A 4.4 23:38:22 21° SSW 23:40:43 40° W 23:44:41 10° NNW
Cosmos 2082 Rocket 2.9 23:35:12 10° SW 23:40:45 54° NW 23:46:19 10° NNE
Tiangong 2 3.4 23:40:00 10° WSW 23:40:44 14° SW 23:40:44 14° SW
ATLAS CENTAUR R/B 1.1 23:42:01 10° NW 23:45:45 75° NE 23:47:06 36° SE
Cosmos 1758 Rocket 3.7 23:44:55 33° SSE 23:46:35 55° E 23:50:52 10° NNE
H-2A R/B 3.3 23:46:14 19° SSW 23:48:55 36° W 23:53:06 10° NNW
Cosmos 389 Rocket 2.6 23:51:53 10° NNW 23:55:20 65° W 23:56:17 43° SSW
Cosmos 1697 Rocket 4.3 23:50:57 10° NW 23:55:21 24° WSW 23:58:45 14° SSW
